User: anonymous   Login
Location: Cronhütte
(48.9135°N, 9.6869°E)
Time: 04:44:48
(UTC+00:00)
Language:

Cosmos 1850 Rocket - Orbit

View from above orbital plane
View from above orbital plane
View from above satellite
View from above satellite

Ground track
Ground track

The orbit data is extracted from the following two-line orbital elements,

1 18096U 87049B   24204.27422949  .00000753  00000-0  26066-3 0  9991
2 18096  74.0418 143.9961 0020664  36.2077 324.0471 14.37299275943912
Epoch (UTC): 22 July 2024 06:34:53
Eccentricity: 0.0020664
inclination: 74.0418°
perigee height: 752 km
apogee height: 782 km
right ascension of ascending node: 143.9961°
argument of perigee: 36.2077°
revolutions per day: 14.37299275
mean anomaly at epoch: 324.0471°
orbit number at epoch: 94391

The dashed part of the orbit path shows where the satellite is in the earth's shadow,  

DLR